Albany, GA

5:49 PM EST on February 24, 2017 (GMT -0500)
Southwest Georgia Regional

Weather History for KABY - February, 2014

Change the Weather History Date:

Sunday, February 9, 2014

  Actual Average Record
Temperature  
Mean Temperature 53 °F 51 °F  
Max Temperature 68 °F 63 °F 83 °F (1957)
Min Temperature 37 °F 40 °F 17 °F (1933)
Degree Days  
Heating Degree Days 12 14  
Month to date heating degree days 97 129  
Since 1 July heating degree days 1367 1333  
Cooling Degree Days 0 0  
Month to date cooling degree days 1 0  
Year to date cooling degree days 1 4  
Growing Degree Days 2 (Base 50)    
Moisture  
Dew Point 42 °F    
Average Humidity 70    
Maximum Humidity 100    
Minimum Humidity 39    
Precipitation  
Precipitation 0.00 in 0.15 in 0.81 in (2005)
Month to date precipitation 0.55 1.20  
Year to date precipitation 2.20 6.02  
Sea Level Pressure  
Sea Level Pressure 30.14 in    
Wind  
Wind Speed 2 mph (SW)    
Max Wind Speed 12 mph    
Max Gust Speed 16 mph    
Visibility 9 miles    
Events      
T = Trace of Precipitation, MM = Missing Value Source: NWS Daily Summary

Daily Weather History Graph

Daily Weather History Graph

Search for Another Location

Airport or City:

Trip Planner

Search our weather history database for the weather conditions in past years. The results will help you decide how hot, cold, wet, or windy it might be!

Date:

Astronomy

Feb. 09, 2014 Rise Set
Actual Time 7:23 AM EST 6:18 PM EST
Civil Twilight 6:58 AM EST 6:43 PM EST
Nautical Twilight 6:29 AM EST 7:12 PM EST
Astronomical Twilight 6:01 AM EST 7:40 PM EST
Moon 2:04 PM EST (2/9) 3:21 AM EST (2/9)
Length of Visible Light 11h 45m
Length of Day
10h 54m
Waxing Gibbous, 77% of the Moon is Illuminated
Feb 9
Waxing Gibbous
Feb 14
Full
Feb 22
Last Quarter
Mar 1
New
Mar 8
First Quarter

Hourly Weather History & Observations

Time (EST) Temp. Dew Point Humidity Pressure Visibility Wind Dir Wind Speed Gust Speed Precip Events Conditions
12:53 AM 41.0 °F 39.9 °F 96% 30.17 in 10.0 mi Calm Calm - N/A   Clear
1:53 AM 41.0 °F 39.0 °F 93% 30.16 in 10.0 mi Calm Calm - N/A   Clear
2:53 AM 39.0 °F 37.9 °F 96% 30.14 in 6.0 mi Calm Calm - N/A   Clear
3:53 AM 39.0 °F 37.0 °F 93% 30.14 in 8.0 mi Calm Calm - N/A   Clear
4:53 AM 37.9 °F 37.0 °F 97% 30.14 in 9.0 mi Calm Calm - N/A   Clear
5:53 AM 37.9 °F 37.0 °F 97% 30.16 in 7.0 mi Calm Calm - N/A   Clear
6:53 AM 39.0 °F 36.0 °F 89% 30.17 in 9.0 mi Calm Calm - N/A   Mostly Cloudy
7:53 AM 39.0 °F 37.9 °F 96% 30.19 in 7.0 mi Calm Calm - N/A   Mostly Cloudy
8:53 AM 46.0 °F 44.1 °F 93% 30.20 in 7.0 mi Calm Calm - N/A   Clear
9:53 AM 53.1 °F 48.0 °F 83% 30.22 in 10.0 mi Calm Calm - N/A   Mostly Cloudy
10:53 AM 57.0 °F 48.0 °F 72% 30.22 in 10.0 mi SW 3.5 mph - N/A   Overcast
11:53 AM 63.0 °F 45.0 °F 52% 30.19 in 10.0 mi Variable 4.6 mph - N/A   Clear
12:53 PM 64.9 °F 44.1 °F 47% 30.16 in 10.0 mi Variable 4.6 mph - N/A   Clear
1:53 PM 66.0 °F 42.1 °F 42% 30.12 in 10.0 mi WSW 6.9 mph - N/A   Clear
2:53 PM 66.0 °F 43.0 °F 43% 30.09 in 10.0 mi SW 5.8 mph - N/A   Clear
3:53 PM 68.0 °F 43.0 °F 40% 30.08 in 10.0 mi WNW 5.8 mph - N/A   Clear
4:53 PM 66.9 °F 42.1 °F 40% 30.08 in 10.0 mi SW 5.8 mph - N/A   Clear
5:53 PM 64.0 °F 44.1 °F 48% 30.09 in 10.0 mi SW 6.9 mph - N/A   Clear
6:53 PM 55.9 °F 46.0 °F 69% 30.11 in 10.0 mi SW 3.5 mph - N/A   Clear
7:53 PM 53.1 °F 45.0 °F 74% 30.11 in 10.0 mi Calm Calm - N/A   Clear
8:53 PM 48.9 °F 45.0 °F 86% 30.13 in 10.0 mi Calm Calm - N/A   Clear
9:53 PM 48.9 °F 44.1 °F 83% 30.11 in 10.0 mi Calm Calm - N/A   Clear
10:53 PM 45.0 °F 43.0 °F 93% 30.12 in 10.0 mi Calm Calm - N/A   Clear
11:53 PM 44.1 °F 42.1 °F 93% 30.12 in 10.0 mi Calm Calm - N/A   Clear